User: anonymous   Login
Location: Dentlein
(49.1477°N, 10.4231°E)
Time: 22:35:14
(UTC+00:00)
Language:

Cosmos 1733 Rocket - Orbit

View from above orbital plane
View from above orbital plane
View from above satellite
View from above satellite

Ground track
Ground track

The orbit data is extracted from the following two-line orbital elements,

1 16612U 86018B   24203.88061185  .00001197  00000-0  13566-3 0  9999
2 16612  82.5157  23.7865 0015978 232.6143 127.3619 14.85511661975938
Epoch (UTC): 21 July 2024 21:08:04
Eccentricity: 0.0015978
inclination: 82.5157°
perigee height: 601 km
apogee height: 623 km
right ascension of ascending node: 23.7865°
argument of perigee: 232.6143°
revolutions per day: 14.85511661
mean anomaly at epoch: 127.3619°
orbit number at epoch: 97593

The dashed part of the orbit path shows where the satellite is in the earth's shadow,  

DLR